Santa Ana, CA

12:40 AM PDT on July 25, 2017 (GMT -0700)
John Wayne-Orange County

Weather History for KSNA - October, 2013

Change the Weather History Date:

Wednesday, October 30, 2013

  Actual Average Record
Temperature  
Mean Temperature 62 °F 65 °F  
Max Temperature 70 °F 74 °F 89 °F (1999)
Min Temperature 53 °F 56 °F 50 °F (2009)
Degree Days  
Heating Degree Days 3 2  
Month to date heating degree days 17 22  
Since 1 July heating degree days 17 23  
Cooling Degree Days 0 2  
Month to date cooling degree days 96 84  
Year to date cooling degree days 1131 852  
Growing Degree Days 11 (Base 50)    
Moisture  
Dew Point 49 °F    
Average Humidity 61    
Maximum Humidity 77    
Minimum Humidity 45    
Precipitation  
Precipitation 0.00 in 0.04 in 0.25 in (2010)
Month to date precipitation 0.20 0.72  
Year to date precipitation 2.29 9.97  
Since 1 July precipitation 0.32  
Snow  
Snow 0.00 in - - ()
Month to date snowfall 0.0  
Year to date snowfall 0.0  
Snow Depth 0.00 in    
Sea Level Pressure  
Sea Level Pressure 30.02 in    
Wind  
Wind Speed 3 mph (West)    
Max Wind Speed 14 mph    
Max Gust Speed 17 mph    
Visibility 10 miles    
Events      
T = Trace of Precipitation, MM = Missing Value Source: NWS Daily Summary

Daily Weather History Graph

Daily Weather History Graph

Search for Another Location

Airport or City:

Trip Planner

Search our weather history database for the weather conditions in past years. The results will help you decide how hot, cold, wet, or windy it might be!

Date:

Astronomy

Oct. 30, 2013 Rise Set
Actual Time 7:09 AM PDT 6:00 PM PDT
Civil Twilight 6:43 AM PDT 6:26 PM PDT
Nautical Twilight 6:13 AM PDT 6:55 PM PDT
Astronomical Twilight 5:44 AM PDT 7:24 PM PDT
Moon 3:13 AM PDT (10/30) 3:39 PM PDT (10/30)
Length of Visible Light 11h 43m
Length of Day
10h 51m
Waning Crescent, 16% of the Moon is Illuminated
Oct 30
Waning Crescent
Nov 3
New
Nov 9
First Quarter
Nov 17
Full
Nov 25
Last Quarter

Hourly Weather History & Observations

Time (PDT) Temp. Dew Point Humidity Pressure Visibility Wind Dir Wind Speed Gust Speed Precip Events Conditions
12:53 AM 57.0 °F 48.9 °F 74% 30.01 in 10.0 mi Calm Calm - N/A   Clear
1:53 AM 55.9 °F 48.0 °F 75% 30.01 in 10.0 mi Calm Calm - N/A   Clear
2:53 AM 57.0 °F 48.9 °F 74% 30.01 in 10.0 mi Calm Calm - N/A   Clear
3:53 AM 55.9 °F 48.0 °F 75% 30.01 in 10.0 mi Calm Calm - N/A   Clear
4:53 AM 55.0 °F 48.0 °F 77% 30.01 in 10.0 mi Calm Calm - N/A   Clear
5:53 AM 54.0 °F 46.9 °F 77% 30.02 in 10.0 mi Calm Calm - N/A   Clear
6:53 AM 53.1 °F 46.9 °F 80% 30.02 in 10.0 mi Calm Calm - N/A   Clear
7:53 AM 55.9 °F 48.0 °F 75% 30.04 in 10.0 mi Calm Calm - N/A   Clear
8:53 AM 60.1 °F 46.9 °F 62% 30.05 in 10.0 mi Calm Calm - N/A   Partly Cloudy
9:53 AM 64.0 °F 48.9 °F 58% 30.06 in 10.0 mi NNE 3.5 mph - N/A   Clear
10:53 AM 64.9 °F 48.9 °F 56% 30.06 in 10.0 mi Variable 4.6 mph - N/A   Partly Cloudy
11:53 AM 66.9 °F 48.0 °F 51% 30.05 in 10.0 mi West 3.5 mph - N/A   Partly Cloudy
12:53 PM 68.0 °F 50.0 °F 52% 30.03 in 10.0 mi WSW 5.8 mph - N/A   Partly Cloudy
1:53 PM 69.1 °F 50.0 °F 51% 30.00 in 10.0 mi SW 9.2 mph - N/A   Partly Cloudy
2:53 PM 69.1 °F 51.1 °F 53% 29.99 in 10.0 mi SW 9.2 mph 16.1 mph N/A   Partly Cloudy
3:53 PM 68.0 °F 46.0 °F 45% 29.99 in 10.0 mi WSW 6.9 mph - N/A   Clear
4:53 PM 66.0 °F 48.9 °F 54% 29.99 in 10.0 mi WSW 6.9 mph - N/A   Clear
5:53 PM 64.9 °F 51.1 °F 61% 29.99 in 10.0 mi WSW 4.6 mph - N/A   Clear
6:53 PM 64.0 °F 52.0 °F 65% 30.01 in 10.0 mi WNW 3.5 mph - N/A   Partly Cloudy
7:53 PM 64.0 °F 46.9 °F 54% 30.01 in 10.0 mi NW 3.5 mph - N/A   Partly Cloudy
8:53 PM 62.1 °F 48.0 °F 60% 30.02 in 10.0 mi Calm Calm - N/A   Clear
9:53 PM 61.0 °F 48.0 °F 62% 30.04 in 10.0 mi Calm Calm - N/A   Partly Cloudy
10:53 PM 60.1 °F 48.0 °F 64% 30.05 in 10.0 mi Calm Calm - N/A   Partly Cloudy
11:53 PM 57.9 °F 48.0 °F 70% 30.05 in 10.0 mi Calm Calm - N/A   Clear